SCOUT A DEB, 3213

Orbit data source: Space-Track

SCOUT A DEB, 3213 is space debris in LEO originally from a launch on Sat, 02 Mar 1968 UTC launched from the Air Force Western Test Range (AFWTR). Debris objects in space refer to the collection of defunct objects orbiting the Earth. Examples of debris include non-operational satellites, rocket bodies, and fragments generated from explosions, collisions, or faulty payload assembly.

Loading next visibility...
Identifier
3213, 1968-012C
Orbit
LEO
Country
Flag of USUS
Related business
Manufacturer
Unknown
Mission
Spacecraft
Bus & Motor
Unknown
Mass
Unknown
Launch date (UTC)
1968-03-02 (58 years ago)
Launch vehicle
Unknown
Launch site
Air Force Western Test Range (AFWTR)
Object type
Payload
Rocket body
Debris
Shape & HBR
Unknown shape, 0.1 m
Radar Cross Section
Small (<0.1 m²)

Expand to show TLE details & history
Last TLE update: 2 days ago

TLE from 2 days ago
0 SCOUT A DEB
1 03213U 68012C   26134.40454266  .00000300  00000-0  23562-3 0  9997
2 03213  90.2036 112.7342 0054076  90.8923  40.9630 13.89287884605757
Epoch: 2026-05-14T09:42Z
TLE epoch observation values (Epoch: 2026-05-14T09:42:32.485Z)
Latitude
47.83041°
Longitude
-84.82825°
Altitude
908.911 km
Speed
7.417 km/s
True Right ascension
19h 31m 49s
True Declination
47° 39' 46"
Sunlit
Object was in daylight at epoch
Visualization orbit readout
Latitude
Unknown
Longitude
Unknown
Altitude
Unknown
Speed
Unknown
Apparent Right ascension
Unknown
Apparent Declination
Unknown
Sunlit
N/A
Visualization observer readout
Local Sidereal Time
19:17:41
Azimuth
Unknown
Elevation
Unknown
Doppler factor
Unknown
Orbital elements
Apogee altitude
967.629 km
Perigee altitude
888.611 km
Semi-major axis
7,306.257 km
Eccentricity
0.00541
Inclination
90.2036°
RAAN
112.7342°
Arg. of periapsis
90.8923°
True anomaly
41.37132°
Mean anomaly
40.963°
Eccentric anomaly
41.16695°
Mean motion
3.47537 °/min
Orbital period
103.59 mins
BSTAR
0.00023562
Loading maneuver chart data...
Computing Atmospheric mass density...
Loading historical data...
Loading historical data...
Loading historical data...
Loading historical data...
Loading historical data...
Loading historical data...
Loading historical data...

Documentation

Showing up to 5 results
|